[[{"header":{"parameterUnit":"m.s-1","parameterCategory":1,"la1":30.2991,"la2":30.254,"lo1":-89.0895,"lo2":-89.0444,"dy":0.0017,"dx":0.0017,"nx":28,"ny":28,"refTime":"2024-08-24T21:00:00:Z","depth":0,"parameterNumber":2,"parameterNumberName":"U-component_of_WINDS"},"data":[0,0,0,0,0,0,0,0,0,0,0,0,0,0,0,0,0,0,0,0,0,0,0,0,0,0,0,0,0,0,0,0,0,0,0,0,0,0,0,0,0,0,0,0,0,0,0,0,0,0,0,0,0,0,0,0,0,0,-2.142,-2.1419,0,-2.1333,-2.1332,-2.1331,-2.1199,-2.1197,-2.1194,-2.1192,-2.1104,-2.1104,-2.1104,0,0,0,0,0,0,0,0,0,0,0,0,0,-2.1475,-2.1475,-2.142,-2.1419,-2.1418,-2.1333,-2.1332,-2.1331,-2.12,-2.1197,-2.1194,-2.1191,-2.1104,-2.1104,-2.1104,0,0,0,0,0,0,0,0,0,0,0,0,0,-2.1426,-2.1474,-2.142,-2.1342,-2.1334,-2.1333,-2.1332,-2.133,-2.12,-2.1197,-2.1193,-2.119,-2.1104,-2.1104,-2.1103,-2.1172,0,0,-2.1103,-2.1103,0,0,0,0,0,0,0,0,-2.1429,-2.1424,-2.1355,-2.1348,-2.1339,-2.1273,-2.1318,-2.1277,-2.1201,-2.1251,-2.1192,-2.1188,-2.1163,-2.1158,-2.1149,-2.1168,-2.1164,-2.1103,-2.1102,-2.1102,-2.1102,0,0,0,0,0,0,0,-2.1432,-2.1427,-2.1386,-2.1354,-2.1344,-2.1312,-2.1301,-2.131,-2.1228,-2.1247,-2.1237,-2.1228,-2.1158,-2.115,-2.1146,-2.1163,-2.1103,-2.1102,-2.1102,-2.1102,-2.1234,-2.1237,0,0,0,0,0,0,-2.1447,-2.1431,-2.1388,-2.1383,-2.1376,-2.1314,-2.1302,-2.1298,-2.1227,-2.1213,-2.1231,-2.1222,-2.1152,-2.1147,-2.1143,-2.1218,-2.1102,-2.1102,-2.1102,-2.123,-2.1235,-2.1238,0,0,0,0,0,0,-2.1449,-2.1445,-2.1392,-2.1404,-2.1395,-2.1317,-2.1313,-2.1298,-2.1289,-2.1216,-2.1201,-2.1238,-2.1149,-2.1143,-2.1166,-2.1213,-2.1102,-2.1102,-2.1226,-2.1231,-2.1236,-2.1369,0,0,0,0,0,0,-2.1451,-2.1446,-2.1471,-2.1406,-2.1395,-2.1416,-2.1316,-2.1299,-2.1289,-2.1277,-2.1218,-2.1205,-2.1146,-2.1167,-2.1165,-2.121,-2.1102,-2.1221,-2.1228,-2.1235,-2.136,-2.1379,-2.1394,0,0,0,0,0,-2.1453,-2.1512,-2.1473,-2.1468,-2.1424,-2.1419,-2.1413,-2.1344,-2.1294,-2.1318,-2.1271,-2.1207,-2.1208,-2.117,-2.1168,-2.1213,-2.1218,-2.1226,-2.1234,-2.1353,-2.1375,-2.1394,0,0,0,0,0,0,-2.1584,-2.1502,-2.1457,-2.1496,-2.1466,-2.1397,-2.1425,-2.137,-2.1353,-2.1342,-2.1257,-2.1245,-2.1278,-2.1248,-2.1207,-2.1276,-2.1203,-2.1211,-2.1294,-2.1315,-2.1332,-2.1338,-2.1101,0,0,0,0,0,-2.1618,-2.162,-2.1548,-2.1589,-2.1576,-2.1504,-2.15,-2.1449,-2.1414,-2.14,-2.1355,-2.1324,-2.1317,-2.1315,-2.1304,-2.1356,-2.1341,-2.1386,-2.1403,-2.1418,-2.1425,-2.1451,-2.147,-2.1265,-2.1265,-2.1265,0,0,-2.1686,-2.1642,-2.1648,-2.1615,-2.1585,-2.159,-2.1494,-2.1503,-2.1506,-2.1402,-2.142,-2.1386,-2.1346,-2.1384,-2.1398,-2.136,-2.1479,-2.1428,-2.144,-2.144,-2.1461,-2.1481,-2.1498,-2.1271,-2.127,-2.1269,0,0,-2.1814,-2.1781,-2.1811,-2.1784,-2.1741,-2.1692,-2.17,-2.164,-2.1614,-2.1631,-2.1553,-2.1556,-2.1546,-2.1521,-2.1507,-2.1627,-2.1568,-2.1627,-2.1715,-2.1741,-2.1757,-2.1771,-2.1813,-2.183,-2.1635,-2.1635,-2.1635,0,-2.1905,-2.1909,-2.1835,-2.1849,-2.1837,-2.1743,-2.1773,-2.1751,-2.1707,-2.1701,-2.1658,-2.1645,-2.1611,-2.1642,-2.1671,-2.1663,-2.167,-2.1632,-2.1761,-2.1774,-2.1785,-2.1825,-2.1842,-2.1643,-2.1642,-2.1641,-2.164,0,-2.2023,-2.2028,-2.2058,-2.2017,-2.2009,-2.2031,-2.1961,-2.1961,-2.1912,-2.1869,-2.1888,-2.1845,-2.1825,-2.1829,-2.1781,-2.1853,-2.183,-2.1776,-2.1701,-2.1814,-2.185,-2.1864,-2.1653,-2.165,-2.1648,-2.1646,0,0,-2.2229,-2.2148,-2.216,-2.2141,-2.2087,-2.2089,-2.2109,-2.2089,-2.2091,-2.2064,-2.2078,-2.2073,-2.2023,-2.2007,-2.1956,-2.1979,-2.2077,-2.1921,-2.1918,-2.1951,-2.2154,-2.2195,-2.2213,-2.2038,-2.204,-2.2042,-2.2157,0,-2.2345,-2.2372,-2.2307,-2.235,-2.2354,-2.2266,-2.2282,-2.2252,-2.2212,-2.221,-2.2166,-2.2164,-2.2098,-2.2088,-2.2106,-2.2061,-2.2116,-2.2052,-2.205,-2.2051,-2.2062,-2.2232,-2.2275,-2.2385,-2.2171,-2.2173,-2.2175,0,-2.2484,-2.2465,-2.2509,-2.2453,-2.2452,-2.2468,-2.2445,-2.2444,-2.2408,-2.2377,-2.2361,-2.2301,-2.2317,-2.2246,-2.2267,-2.2224,-2.222,-2.2198,-2.2201,-2.2197,-2.2119,-2.2232,-2.2418,-2.2435,-2.2196,-2.2194,-2.2193,0,-2.2629,-2.2614,-2.2638,-2.2625,-2.2561,-2.2574,-2.2548,-2.2509,-2.2501,-2.2482,-2.2476,-2.2459,-2.245,-2.2438,-2.2376,-2.233,-2.2404,-2.2328,-2.2379,-2.2381,-2.2398,-2.2397,-2.2585,-2.2397,-2.2397,-2.2397,-2.2396,0,-2.2765,-2.2796,-2.2703,-2.2718,-2.275,-2.2675,-2.2709,-2.2674,-2.264,-2.2647,-2.257,-2.2579,-2.2497,-2.2496,-2.2448,-2.2473,-2.2469,-2.2445,-2.2432,-2.2452,-2.2455,-2.2446,-2.2437,-2.2401,-2.24,-2.2399,-2.2398,0,-2.2932,-2.2871,-2.2892,-2.283,-2.2815,-2.2841,-2.2788,-2.28,-2.2757,-2.2767,-2.2765,-2.2697,-2.2693,-2.263,-2.2613,-2.258,-2.2624,-2.2596,-2.2636,-2.2627,-2.2682,-2.2677,-2.287,-2.2892,-2.2691,-2.2693,-2.2695,0,-2.3022,-2.3043,-2.2984,-2.2983,-2.2961,-2.2961,-2.2953,-2.2881,-2.2876,-2.2837,-2.2854,-2.2844,-2.2832,-2.283,-2.2779,-2.2765,-2.2737,-2.2805,-2.2734,-2.2753,-2.2737,-2.2736,-2.2738,-2.282,-2.2823,-2.2825,-2.2826,0,-2.3189,-2.3158,-2.3149,-2.3131,-2.3124,-2.3106,-2.3083,-2.3088,-2.3008,-2.3007,-2.3002,-2.2993,-2.2975,-2.2966,-2.2944,-2.2917,-2.2859,-2.285,-2.2861,-2.288,-2.2902,-2.2891,-2.2676,-2.2845,-2.2843,-2.2842,-2.2841,-2.284,-2.3319,-2.3334,-2.3295,-2.3288,-2.3264,-2.3245,-2.3253,-2.3211,-2.3205,-2.3185,-2.3143,-2.3145,-2.3109,-2.3073,-2.3052,-2.3053,-2.3018,-2.3034,-2.3038,-2.3043,-2.3054,-2.2903,-2.3049,-2.3048,-2.3048,-2.3047,-2.3047,0,-2.3481,-2.3452,-2.3447,-2.3418,-2.3413,-2.3359,-2.3332,-2.3331,-2.3334,-2.3305,-2.3295,-2.329,-2.3281,-2.3231,-2.3217,-2.3227,-2.32,-2.3226,-2.3224,-2.3219,-2.3086,-2.3078,-2.3248,-2.3248,-2.3248,-2.3248,-2.3248,-2.3248,-2.3565,-2.3587,-2.3553,-2.3563,-2.3533,-2.3534,-2.3523,-2.3506,-2.3482,-2.348,-2.3473,-2.344,-2.3403,-2.3385,-2.3375,-2.3361,-2.3359,-2.3394,-2.337,-2.3247,-2.3228,-2.3209,-2.3201,-2.3394,-2.3394,-2.3502,-2.3503,-2.3504]},{"header":{"parameterUnit":"m.s-1","parameterCategory":1,"la1":30.2991,"la2":30.254,"lo1":-89.0895,"lo2":-89.0444,"dy":0.0017,"dx":0.0017,"nx":28,"ny":28,"refTime":"2024-08-24T21:00:00:Z","depth":0,"parameterNumber":3,"parameterNumberName":"V-component_of_WINDS"},"data":[0,0,0,0,0,0,0,0,0,0,0,0,0,0,0,0,0,0,0,0,0,0,0,0,0,0,0,0,0,0,0,0,0,0,0,0,0,0,0,0,0,0,0,0,0,0,0,0,0,0,0,0,0,0,0,0,0,0,1.794,1.7941,0,1.801,1.801,1.8011,1.8066,1.8067,1.8067,1.8068,1.8136,1.8137,1.8138,0,0,0,0,0,0,0,0,0,0,0,0,0,1.7853,1.7854,1.794,1.7941,1.7942,1.8009,1.801,1.8011,1.8066,1.8067,1.8067,1.8068,1.8135,1.8137,1.8138,0,0,0,0,0,0,0,0,0,0,0,0,0,1.7903,1.7855,1.794,1.7977,1.7981,1.8009,1.801,1.8012,1.8066,1.8067,1.8067,1.8068,1.8135,1.8137,1.8139,1.8134,0,0,1.8144,1.8145,0,0,0,0,0,0,0,0,1.79,1.7906,1.7971,1.7975,1.7979,1.803,1.8005,1.8052,1.8066,1.8034,1.8068,1.8069,1.81,1.8105,1.8116,1.8137,1.814,1.8145,1.8146,1.8147,1.8147,0,0,0,0,0,0,0,1.7897,1.7904,1.7968,1.7972,1.7977,1.799,1.7998,1.8014,1.8061,1.8036,1.8041,1.8048,1.8102,1.8114,1.8118,1.8141,1.8145,1.8146,1.8148,1.8148,1.8163,1.8162,0,0,0,0,0,0,1.7888,1.79,1.7965,1.797,1.7941,1.7991,1.8,1.8013,1.8061,1.8069,1.8047,1.8051,1.811,1.8115,1.812,1.8118,1.8147,1.8148,1.815,1.8163,1.8162,1.8162,0,0,0,0,0,0,1.7886,1.7893,1.7963,1.7936,1.7946,1.7991,1.8006,1.8014,1.8026,1.8069,1.8078,1.8051,1.8111,1.8117,1.813,1.8121,1.8149,1.8151,1.8164,1.8163,1.8162,1.8114,0,0,0,0,0,0,1.7883,1.7892,1.7891,1.7936,1.7947,1.7972,1.8005,1.8015,1.8029,1.8034,1.8075,1.8082,1.8112,1.8127,1.8132,1.8124,1.8153,1.8165,1.8164,1.8162,1.8116,1.8111,1.8107,0,0,0,0,0,1.788,1.7874,1.7891,1.7898,1.7947,1.7971,1.7978,1.8013,1.8028,1.8027,1.8056,1.8081,1.8122,1.8128,1.8134,1.8127,1.8166,1.8164,1.8162,1.8118,1.8112,1.8107,0,0,0,0,0,0,1.7826,1.7881,1.79,1.7909,1.7935,1.7981,1.7981,1.8005,1.8027,1.803,1.8072,1.8081,1.8089,1.811,1.8116,1.8125,1.8147,1.8146,1.8111,1.8106,1.8101,1.8096,1.8154,0,0,0,0,0,1.7816,1.7831,1.7878,1.7881,1.7894,1.7935,1.7947,1.7972,1.8,1.8011,1.8041,1.8067,1.8086,1.8097,1.8117,1.812,1.8129,1.8118,1.8113,1.8109,1.8107,1.8111,1.8106,1.8156,1.8156,1.8156,0,0,1.7793,1.7825,1.7832,1.7871,1.7895,1.7909,1.7944,1.7958,1.7969,1.8013,1.8028,1.805,1.8082,1.809,1.8095,1.8107,1.8096,1.8106,1.8103,1.8104,1.8108,1.8103,1.8099,1.8155,1.8155,1.8155,0,0,1.7761,1.7786,1.7792,1.7815,1.7851,1.7878,1.788,1.7922,1.7939,1.7954,1.7988,1.8001,1.8032,1.8054,1.8069,1.8045,1.8069,1.805,1.8024,1.8027,1.8023,1.802,1.8011,1.8007,1.8049,1.8049,1.8049,0,1.7728,1.7753,1.7792,1.7804,1.782,1.7862,1.7868,1.7888,1.7928,1.7937,1.7951,1.7991,1.8016,1.803,1.8024,1.8035,1.8037,1.8045,1.8021,1.8018,1.8015,1.8007,1.8004,1.8046,1.8047,1.8047,1.8047,0,1.7711,1.7728,1.7728,1.7766,1.7782,1.7791,1.7831,1.7842,1.7866,1.7892,1.7907,1.7938,1.7965,1.797,1.7992,1.7987,1.7993,1.8013,1.8036,1.8007,1.8001,1.7998,1.8043,1.8044,1.8044,1.8045,0,0,1.7646,1.7707,1.7706,1.7724,1.7767,1.778,1.779,1.7818,1.7826,1.7852,1.7862,1.7888,1.7907,1.7924,1.795,1.7952,1.7931,1.7972,1.7973,1.7963,1.7926,1.7911,1.7907,1.7947,1.7947,1.7947,1.7923,0,1.762,1.7642,1.7678,1.7688,1.7704,1.7744,1.7754,1.778,1.7805,1.7821,1.7848,1.7866,1.7889,1.79,1.7904,1.7932,1.7924,1.7935,1.7956,1.7956,1.7946,1.7903,1.7887,1.7863,1.7921,1.7921,1.792,0,1.7592,1.7617,1.7629,1.7671,1.7679,1.7686,1.7715,1.773,1.7761,1.7779,1.7798,1.7826,1.7839,1.786,1.7878,1.7885,1.7896,1.7911,1.7911,1.7913,1.7936,1.7904,1.7857,1.7853,1.7917,1.7917,1.7917,0,1.7543,1.7579,1.7591,1.7605,1.7655,1.7659,1.768,1.7712,1.7726,1.775,1.776,1.7785,1.7798,1.7817,1.7851,1.7863,1.7865,1.7889,1.7879,1.7878,1.7877,1.7877,1.783,1.7885,1.7885,1.7885,1.7885,0,1.7509,1.7515,1.757,1.7577,1.7585,1.7626,1.7632,1.7656,1.7684,1.7697,1.7733,1.7743,1.7788,1.7804,1.783,1.7841,1.7847,1.7861,1.7868,1.7858,1.7856,1.7865,1.7867,1.7884,1.7884,1.7884,1.7885,0,1.7455,1.7492,1.7508,1.7554,1.7566,1.7569,1.7608,1.7616,1.7643,1.7659,1.7664,1.7707,1.7727,1.7763,1.7793,1.7811,1.7817,1.7829,1.7806,1.781,1.7799,1.7799,1.7756,1.7752,1.7809,1.7809,1.7808,0,1.7431,1.7437,1.7484,1.7495,1.7514,1.7532,1.7547,1.7588,1.7602,1.7638,1.7641,1.7665,1.7686,1.7716,1.7749,1.7773,1.7785,1.7769,1.7789,1.7779,1.7785,1.7784,1.7785,1.7764,1.7763,1.7762,1.7762,0,1.7385,1.7403,1.7424,1.7451,1.7468,1.7491,1.7516,1.7523,1.7569,1.7583,1.7605,1.7621,1.7653,1.7675,1.7704,1.7724,1.775,1.7755,1.7754,1.7744,1.773,1.7737,1.7793,1.7756,1.7757,1.7757,1.7757,1.7758,1.7345,1.7352,1.7386,1.7408,1.7431,1.7454,1.7464,1.7493,1.7512,1.7542,1.7564,1.7584,1.7616,1.7656,1.7675,1.7691,1.7703,1.7702,1.7702,1.77,1.7696,1.7728,1.7697,1.7697,1.7697,1.7697,1.7697,0,1.7301,1.7325,1.7345,1.7379,1.7396,1.742,1.7449,1.7462,1.7479,1.7506,1.7527,1.7552,1.7574,1.7609,1.7634,1.764,1.7652,1.7645,1.7645,1.7649,1.7684,1.7682,1.7634,1.7634,1.7634,1.7634,1.7634,1.7634,1.7279,1.7292,1.7315,1.734,1.7364,1.7384,1.7399,1.742,1.7442,1.7468,1.7487,1.751,1.7541,1.7568,1.759,1.7599,1.7607,1.7595,1.7608,1.764,1.7646,1.7652,1.7651,1.7596,1.7596,1.7572,1.7572,1.7572]}]]